This is the latest recevied weather packets stored in our database for station/object OK2ZA-6. If no packets are shown the sender has not sent any weather packets the latest 10 day(s).
| Time | Temp. | Humidity | Pressure | Rain* | Wind** | Luminosity | Snow |
|---|---|---|---|---|---|---|---|
| 1777819203 | 21.11° C | 40% | 1016 hPa | 0 mm | - | - | - |
| 1777818603 | 21.11° C | 39% | 1016.1 hPa | 0 mm | - | - | - |
| 1777818026 | 21.11° C | 38% | 1016.1 hPa | 0 mm | - | - | - |
| 1777817404 | 21.11° C | 39% | 1016.2 hPa | 0 mm | - | - | - |
| 1777816804 | 21.11° C | 37% | 1016.1 hPa | 0 mm | - | - | - |
| 1777816204 | 21.67° C | 38% | 1016.2 hPa | 0 mm | - | - | - |
| 1777815604 | 21.11° C | 40% | 1016.2 hPa | 0 mm | - | - | - |
| 1777815003 | 21.11° C | 39% | 1016.5 hPa | 0 mm | - | - | - |
| 1777814404 | 21.11° C | 39% | 1016.6 hPa | 0 mm | - | - | - |
| 1777813804 | 21.11° C | 41% | 1016.8 hPa | 0 mm | - | - | - |
| 1777813204 | 21.11° C | 39% | 1016.9 hPa | 0 mm | - | - | - |
| 1777812604 | 21.11° C | 40% | 1017 hPa | 0 mm | - | - | - |
| 1777812004 | 21.11° C | 39% | 1017.2 hPa | 0 mm | - | - | - |
| 1777811403 | 20.56° C | 39% | 1017.2 hPa | 0 mm | - | - | - |
| 1777810804 | 21.11° C | 40% | 1017.4 hPa | 0 mm | - | - | - |
| 1777810204 | 20.56° C | 39% | 1017.4 hPa | 0 mm | - | - | - |
| 1777809604 | 20.56° C | 40% | 1017.5 hPa | 0 mm | - | - | - |
| 1777809003 | 20.56° C | 40% | 1017.7 hPa | 0 mm | - | - | - |
| 1777808404 | 20.56° C | 40% | 1017.7 hPa | 0 mm | - | - | - |
| 1777807804 | 20.56° C | 41% | 1018 hPa | 0 mm | - | - | - |
| 1777807204 | 20.56° C | 40% | 1018 hPa | 0 mm | - | - | - |
| 1777806604 | 20° C | 41% | 1018.1 hPa | 0 mm | - | - | - |
| 1777806004 | 20° C | 41% | 1018.2 hPa | 0 mm | - | - | - |
| 1777805404 | 20° C | 39% | 1018.3 hPa | 0 mm | - | - | - |
| 1777804804 | 20° C | 41% | 1018.2 hPa | 0 mm | - | - | - |
* Rain latest hour (hover to see other rain measurements)
** Current wind speed in m/s (hover to see current wind gust speed)